Paducah, KY

3:33 PM CDT on March 29, 2017 (GMT -0500)
Barkley Regional

Weather History for KPAH - January, 2011

Change the Weather History Date:

Thursday, January 6, 2011

  Actual Average Record
Temperature  
Mean Temperature 34 °F 34 °F  
Max Temperature 45 °F 43 °F 68 °F (2008)
Min Temperature 22 °F 26 °F -2 °F (1970)
Degree Days  
Heating Degree Days 31 31  
Month to date heating degree days 192 183  
Since 1 July heating degree days 1901 1814  
Cooling Degree Days 0 0  
Month to date cooling degree days 0 0  
Year to date cooling degree days 0 0  
Moisture  
Dew Point 23 °F    
Average Humidity 65    
Maximum Humidity 84    
Minimum Humidity 45    
Precipitation  
Precipitation T in 0.11 in 1.22 in (1991)
Month to date precipitation 0.35 0.73  
Year to date precipitation 0.35 0.73  
Snow  
Snow T in 0.00 in 4.10 in (1996)
Month to date snowfall T 0.5  
Since 1 July snowfall 5.6 2.8  
Snow Depth 0.00 in    
Sea Level Pressure  
Sea Level Pressure 29.80 in    
Wind  
Wind Speed 6 mph (West)    
Max Wind Speed 18 mph    
Max Gust Speed 22 mph    
Visibility 10 miles    
Events      
T = Trace of Precipitation, MM = Missing Value Source: NWS Daily Summary

Daily Weather History Graph

Daily Weather History Graph

Search for Another Location

Airport or City:

Trip Planner

Search our weather history database for the weather conditions in past years. The results will help you decide how hot, cold, wet, or windy it might be!

Date:

Astronomy

Jan. 06, 2011 Rise Set
Actual Time 7:08 AM CST 4:53 PM CST
Civil Twilight 6:40 AM CST 5:21 PM CST
Nautical Twilight 6:07 AM CST 5:54 PM CST
Astronomical Twilight 5:36 AM CST 6:25 PM CST
Moon 8:28 AM CST (1/6) 7:25 PM CST (1/6)
Length of Visible Light 10h 41m
Length of Day
9h 44m
Waxing Crescent, 6% of the Moon is Illuminated
Jan 6
Waxing Crescent
Jan 12
First Quarter
Jan 19
Full
Jan 26
Last Quarter
Feb 2
New

Hourly Weather History & Observations

Time (CST) Temp. Windchill Dew Point Humidity Pressure Visibility Wind Dir Wind Speed Gust Speed Precip Events Conditions
12:53 AM 25.0 °F - 18.0 °F 75% 29.86 in 10.0 mi Calm Calm - N/A   Clear
1:53 AM 23.0 °F 17.0 °F 18.0 °F 81% 29.87 in 10.0 mi WSW 4.6 mph - N/A   Clear
2:53 AM 21.9 °F - 17.1 °F 82% 29.87 in 10.0 mi Calm Calm - N/A   Clear
3:53 AM 25.0 °F 17.1 °F 19.0 °F 78% 29.85 in 10.0 mi WSW 6.9 mph - N/A   Clear
4:53 AM 26.1 °F 19.4 °F 19.9 °F 78% 29.84 in 10.0 mi West 5.8 mph - N/A   Clear
5:53 AM 27.0 °F 21.6 °F 19.9 °F 75% 29.84 in 10.0 mi West 4.6 mph - N/A   Clear
6:53 AM 25.0 °F 18.1 °F 19.0 °F 78% 29.85 in 10.0 mi West 5.8 mph - N/A   Clear
7:53 AM 27.0 °F 19.5 °F 21.0 °F 78% 29.86 in 9.0 mi West 6.9 mph - N/A   Clear
8:53 AM 34.0 °F 26.6 °F 24.1 °F 67% 29.85 in 10.0 mi WSW 9.2 mph - N/A   Clear
9:53 AM 37.9 °F 31.5 °F 25.0 °F 60% 29.84 in 10.0 mi WSW 9.2 mph - N/A   Clear
10:53 AM 41.0 °F 33.9 °F 25.0 °F 53% 29.83 in 10.0 mi West 12.7 mph - N/A   Clear
11:53 AM 42.1 °F 34.5 °F 26.1 °F 53% 29.80 in 10.0 mi West 15.0 mph - N/A   Clear
12:53 PM 45.0 °F 40.1 °F 24.1 °F 44% 29.77 in 10.0 mi NW 9.2 mph 21.9 mph N/A   Clear
1:53 PM 43.0 °F 37.2 °F 26.1 °F 51% 29.76 in 10.0 mi West 10.4 mph - N/A   Mostly Cloudy
2:53 PM 43.0 °F 36.8 °F 25.0 °F 49% 29.77 in 10.0 mi West 11.5 mph - N/A   Overcast
3:53 PM 42.1 °F 37.7 °F 25.0 °F 51% 29.78 in 10.0 mi West 6.9 mph - N/A   Overcast
4:53 PM 42.1 °F 37.7 °F 26.1 °F 53% 29.78 in 10.0 mi West 6.9 mph - N/A   Overcast
5:53 PM 39.9 °F - 26.1 °F 58% 29.77 in 10.0 mi Calm Calm - N/A   Overcast
6:53 PM 39.9 °F - 26.1 °F 58% 29.77 in 10.0 mi Calm Calm - N/A   Overcast
7:53 PM 37.9 °F 32.1 °F 26.1 °F 62% 29.77 in 10.0 mi NNE 8.1 mph - N/A   Overcast
8:53 PM 37.0 °F 32.4 °F 27.0 °F 67% 29.78 in 10.0 mi North 5.8 mph - N/A   Overcast
9:53 PM 35.1 °F - 27.0 °F 72% 29.76 in 10.0 mi Calm Calm - N/A   Mostly Cloudy
10:53 PM 34.0 °F - 27.0 °F 75% 29.72 in 10.0 mi Calm Calm - N/A   Scattered Clouds
11:53 PM 28.9 °F - 25.0 °F 85% 29.69 in 10.0 mi Calm Calm - N/A   Clear